Regional Weather Roundup
Issued by NWS

Home | Current Version | Previous Version | Text Only | Print | Product List | Glossary Off
Versions: 1 2 3 4 5 6 7 8 9 10 11 12 13 14 15 16 17 18 19 20 21 22 23 24 25 26 27 28 29 30 31 32 33 34 35 36 37 38 39 40 41 42 43 44 45 46 47 48 49 50

000
ASUS45 KCYS 200110
RWRWY

WYOMING REGIONAL WEATHER ROUNDUP
NATIONAL WEATHER SERVICE CHEYENNE WY
600 PM MST THU JAN 19 2017

NOTE:  "FAIR" INDICATES FEW OR NO CLOUDS BELOW 12,000 FEET
WITH NO SIGNIFICANT WEATHER AND/OR OBSTRUCTIONS TO VISIBILITY.

WYZ001-200200-
YELLOWSTONE NATIONAL PARK

CITY           SKY/WX    TMP DP  RH WIND       PRES   REMARKS
LK YELLOWSTONE   N/A     24  20  84 VRB5      29.64R WCI  18
W YELLOWSTONE  NOT AVBL

$$
WYZ002>013-054>058-071-098>099-200200-
NORTHERN WYOMING

CITY           SKY/WX    TMP DP  RH WIND       PRES   REMARKS
JACKSON        CLOUDY    25  23  93 SW6       29.65R WCI  18
CODY           NOT AVBL
GREYBULL       CLOUDY    24  18  77 NW6       29.53R WCI  17
WORLAND        FAIR      27  23  85 CALM      29.53R
SHERIDAN       FAIR      23  16  74 VRB3      29.50S
BUFFALO        FAIR      37  22  54 NW9       29.51R WCI  30
GILLETTE       FAIR      35  25  66 N6        29.49R WCI  30
HULETT         FAIR      37  25  60 SW3       29.49S
NEWCASTLE      FAIR      34  23  64 CALM      29.52R

$$
WYZ014>020-022>026-101>103-200200-
CENTRAL WYOMING

CITY           SKY/WX    TMP DP  RH WIND       PRES   REMARKS
BIG PINEY      CLOUDY    13  11  92 CALM      29.67R
PINEDALE       CLOUDY    18  16  93 CALM      29.66S
DUBOIS         NOT AVBL
LANDER         FAIR      22  14  71 E3        29.55R
RIVERTON       FAIR      18  12  77 SW6       29.57R WCI  10
CASPER         FAIR      33  23  66 SW17      29.57S WCI  22
DOUGLAS        FAIR      36  22  56 W16       29.54S WCI  26

$$
WYZ021-027>030-104>119-200200-
SOUTHERN WYOMING

CITY           SKY/WX    TMP DP  RH WIND       PRES   REMARKS
EVANSTON       LGT SNOW  28  25  88 SW7       29.68R FOG     WCI  21
ROCK SPRINGS   LGT SNOW  18  15  88 S3        29.67S FOG
RAWLINS        NOT AVBL
LARAMIE        FAIR      20  16  84 E7        29.59S WCI  11
CHEYENNE       FAIR      36  17  46 W7        29.55R WCI  30
TORRINGTON     FAIR      41  21  44 W9        29.50R

$$



USA.gov is the U.S. government's official web portal to all federal, state and local government web resources and services.